Regional Weather Roundup
Issued by NWS

Home | Current Version | Previous Version | Graphics & Text | Print | Product List | Glossary Off
Versions: 1 2 3 4 5 6 7 8 9 10 11 12 13 14 15 16 17 18 19 20 21 22 23 24 25 26 27 28 29 30 31 32 33 34 35 36 37 38 39 40 41 42 43 44 45 46 47 48 49 50

000
ASUS43 KLSX 251057
RWRMO

WEATHER SUMMARY FOR MISSOURI
NATIONAL WEATHER SERVICE SPRINGFIELD MO
600 AM CDT MON JUL 25 2016

NOTE: "FAIR" INDICATES FEW OR NO CLOUDS BELOW 12,000 FEET WITH NO
       SIGNIFICANT WEATHER AND/OR OBSTRUCTIONS TO VISIBILITY.
       CURRENT SKY AND/OR WEATHER CONDITIONS ARE NOT AVAILABLE FOR
       CHILLICOTHE AND FARMINGTON.

MOZ001>031-035>038-043-044-053-054-251200-
...NORTHERN AND WESTERN MISSOURI...

CITY           SKY/WX    TMP DP  RH WIND       PRES   REMARKS
KANSAS CTY INT CLOUDY    74  67  78 NE8       30.06R
LEE`S SUMMIT   CLOUDY    73  71  93 N5        30.05R
ST JOSEPH      CLOUDY    69  66  90 N3        30.06R

$$
MOZ066>068-077>081-088>096-101>105-251200-
...SOUTHWEST MISSOURI...

CITY           SKY/WX    TMP DP  RH WIND       PRES   REMARKS
SPRINGFIELD    MOCLDY    79  73  82 CALM      30.00R

$$
MOZ032>034-039>042-045>050-055>058-069>072-251200-
...CENTRAL MISSOURI...

CITY           SKY/WX    TMP DP  RH WIND       PRES   REMARKS
COLUMBIA       TSTM      72  69  90 VRB3      30.03R VSB 3/4
JEFFERSON CITY CLOUDY    74  72  93 E5        30.04R
ROLLA          LGT RAIN  72  69  90 E7        30.01F
SEDALIA        TSTM      73  71  93 NW7       30.06R FOG
WHITEMAN AFB   HVY RAIN  72  72 100 NE1       30.04R FOG

$$
MOZ051-052-059>065-251200-
...EAST CENTRAL MISSOURI...

CITY           SKY/WX    TMP DP  RH WIND       PRES   REMARKS
ST LOUIS INTL  LGT RAIN  74  71  91 NE5       29.99F

$$
MOZ072>076-082>087-097>100-106>115-251200-
...SOUTH CENTRAL AND SOUTHEAST MISSOURI...

CITY           SKY/WX    TMP DP  RH WIND       PRES   REMARKS
CAPE GIRARDEAU PTCLDY    76  74  93 SE3       29.98S
POPLAR BLUFF   CLEAR     77  75  93 CALM      29.97S
WEST PLAINS    CLOUDY    76  73  91 NE5       30.04R FOG

$$


USA.gov is the U.S. government's official web portal to all federal, state and local government web resources and services.